Location: Newark
(51.0500°N, 12.4500°E)
Time: 14:31:04
(UTC+00:00)

Tiros 1 - Pass Details

Date: 23 February 2020
Orbit: 630 x 664 km, 48.4° (Epoch: 06 April)

Event Time Altitude Azimuth Distance (km) Brightness Sun altitude
Rises 06:30:48 0° 279° (W) 2,919 9.8 2.5°
Reaches altitude 10° 06:33:26 10° 266° (W) 2,009 9.1 2.9°
Maximum altitude 06:37:11 25° 212° (SSW) 1,279 8.6 3.4°
Drops below altitude 10° 06:40:56 10° 157° (SSE) 2,006 10.4 4.0°
Sets 06:43:34 0° 144° (SE) 2,915 11.6 4.4°
